Weather History for Tehachapi, CA

Change the Weather History Date:

Saturday, August 4, 2012

  Actual Average Record
Temperature  
Mean Temperature 73 °F -  
Max Temperature 87 °F 88 °F 87 °F (2012)
Min Temperature 59 °F 59 °F 48 °F (2011)
Cooling Degree Days 8    
Growing Degree Days 23 (Base 50)    
Moisture  
Dew Point 40 °F    
Average Humidity 29    
Maximum Humidity 51    
Minimum Humidity 19    
Precipitation  
Precipitation 0.00 in - - ()
Sea Level Pressure  
Sea Level Pressure 30.04 in    
Wind  
Wind Speed 5 mph (WNW)    
Max Wind Speed 17 mph    
Max Gust Speed 22 mph    
Visibility 10 miles    
Events Rain , Thunderstorm    
Averages and records for this station are not official NWS values.
T = Trace of Precipitation, MM = Missing Value Source: NWS Daily Summary

Daily Weather History Graph

Daily Weather History Graph

Search for Another Location

Airport:

Trip Planner

Search our weather history database for the weather conditions in past years. The results will help you decide how hot, cold, wet, or windy it might be!

Date:

Astronomy

Aug. 04, 2012 Rise Set
Actual Time 6:05 AM PDT 7:53 PM PDT
Civil Twilight 5:38 AM PDT 8:20 PM PDT
Nautical Twilight 5:04 AM PDT 8:54 PM PDT
Astronomical Twilight 4:29 AM PDT 9:29 PM PDT
Moon 9:15 PM PDT (8/4) 8:48 AM PDT (8/4)
Length of Visible Light 14h 42m
Length of Day
13h 47m
Waning Gibbous, 92% of the Moon is Illuminated
Aug 4
Waning Gibbous
Aug 9
Last Quarter
Aug 17
New
Aug 24
First Quarter
Aug 31
Full

Hourly Weather History & Observations

Time (PDT) Temp. Dew Point Humidity Pressure Visibility Wind Dir Wind Speed Gust Speed Precip Events Conditions
12:15 AM 75.2 °F 32.0 °F 21% 30.05 in 10.0 mi West 3.5 mph - N/A   Overcast
12:35 AM 75.2 °F 35.6 °F 24% 30.04 in 10.0 mi SW 6.9 mph - N/A Rain , Thunderstorm Light Rain
12:55 AM 73.4 °F 37.4 °F 27% 30.03 in 10.0 mi North 4.6 mph - N/A   Overcast
1:35 AM 71.6 °F 35.6 °F 27% 30.01 in 10.0 mi Calm Calm - N/A   Mostly Cloudy
1:55 AM 68.0 °F 35.6 °F 30% 30.01 in 10.0 mi Calm Calm - N/A   Scattered Clouds
2:15 AM 69.8 °F 35.6 °F 28% 30.00 in 10.0 mi West 4.6 mph - N/A   Mostly Cloudy
2:35 AM 66.2 °F 37.4 °F 35% 30.00 in 10.0 mi Calm Calm - N/A   Mostly Cloudy
2:55 AM 69.8 °F 37.4 °F 31% 29.99 in 10.0 mi Calm Calm - N/A   Mostly Cloudy
3:15 AM 68.0 °F 37.4 °F 33% 29.99 in 10.0 mi Calm Calm - N/A   Partly Cloudy
3:35 AM 68.0 °F 37.4 °F 33% 29.98 in 10.0 mi Calm Calm - N/A   Clear
3:55 AM 64.4 °F 41.0 °F 42% 29.99 in 10.0 mi East 5.8 mph - N/A   Clear
4:15 AM 62.6 °F 41.0 °F 45% 29.98 in 10.0 mi Calm Calm - N/A   Clear
4:35 AM 62.6 °F 39.2 °F 42% 29.98 in 10.0 mi Calm Calm - N/A   Clear
4:55 AM 62.6 °F 41.0 °F 45% 29.98 in 10.0 mi Calm Calm - N/A   Clear
5:15 AM 60.8 °F 41.0 °F 48% 29.99 in 10.0 mi Calm Calm - N/A   Clear
5:35 AM 60.8 °F 41.0 °F 48% 29.99 in 10.0 mi Calm Calm - N/A   Clear
5:55 AM 59.0 °F 41.0 °F 51% 30.01 in 10.0 mi Calm Calm - N/A   Clear
6:15 AM 60.8 °F 39.2 °F 45% 30.01 in 10.0 mi North 4.6 mph - N/A   Clear
6:35 AM 60.8 °F 39.2 °F 45% 30.02 in 10.0 mi Calm Calm - N/A   Clear
6:55 AM 66.2 °F 41.0 °F 40% 30.03 in 10.0 mi Calm Calm - N/A   Clear
7:15 AM 68.0 °F 41.0 °F 37% 30.03 in 10.0 mi NNW 3.5 mph - N/A   Clear
7:35 AM 69.8 °F 39.2 °F 33% 30.04 in 10.0 mi Calm Calm - N/A   Clear
7:55 AM 73.4 °F 39.2 °F 29% 30.04 in 10.0 mi Calm Calm - N/A   Clear
8:15 AM 75.2 °F 39.2 °F 27% 30.04 in 10.0 mi South 3.5 mph - N/A   Clear
8:35 AM 75.2 °F 39.2 °F 27% 30.04 in 10.0 mi Calm Calm - N/A   Clear
8:55 AM 77.0 °F 37.4 °F 24% 30.04 in 10.0 mi Calm Calm - N/A   Clear
9:15 AM 78.8 °F 35.6 °F 21% 30.04 in 10.0 mi WSW 3.5 mph - N/A   Clear
9:35 AM 80.6 °F 37.4 °F 21% 30.04 in 10.0 mi Calm Calm - N/A   Clear
9:55 AM 80.6 °F 37.4 °F 21% 30.04 in 10.0 mi Calm Calm - N/A   Clear
10:15 AM 82.4 °F 39.2 °F 21% 30.04 in 10.0 mi Calm Calm - N/A   Clear
10:35 AM 84.2 °F 39.2 °F 20% 30.04 in 10.0 mi WSW 5.8 mph - N/A   Clear
11:15 AM 86.0 °F 39.2 °F 19% 30.05 in 9.0 mi NW 16.1 mph 20.7 mph N/A   Scattered Clouds
11:35 AM 84.2 °F 39.2 °F 20% 30.05 in 10.0 mi NW 16.1 mph - N/A   Mostly Cloudy
11:55 AM 86.0 °F 39.2 °F 19% 30.05 in 9.0 mi WNW 12.7 mph 19.6 mph N/A   Scattered Clouds
12:15 PM 87.8 °F 41.0 °F 19% 30.05 in 9.0 mi NW 13.8 mph - N/A   Partly Cloudy
12:35 PM 87.8 °F 41.0 °F 19% 30.05 in 9.0 mi NNW 15.0 mph - N/A   Clear
12:55 PM 87.8 °F 41.0 °F 19% 30.05 in 10.0 mi NW 16.1 mph - N/A   Partly Cloudy
1:15 PM 87.8 °F 41.0 °F 19% 30.05 in 9.0 mi NW 10.4 mph - N/A   Partly Cloudy
1:35 PM 86.0 °F 42.8 °F 22% 30.06 in 10.0 mi NW 15.0 mph - N/A   Clear
1:55 PM 84.2 °F 42.8 °F 23% 30.06 in 10.0 mi NW 15.0 mph 19.6 mph N/A   Clear
2:15 PM 84.2 °F 41.0 °F 22% 30.05 in 10.0 mi NW 13.8 mph 18.4 mph N/A   Partly Cloudy
2:35 PM 84.2 °F 41.0 °F 22% 30.05 in 10.0 mi NW 16.1 mph 20.7 mph N/A   Partly Cloudy
2:55 PM 86.0 °F 39.2 °F 19% 30.05 in 10.0 mi NW 15.0 mph 21.9 mph N/A   Clear
3:15 PM 86.0 °F 41.0 °F 20% 30.05 in 10.0 mi NW 17.3 mph - N/A   Clear
3:35 PM 86.0 °F 41.0 °F 20% 30.04 in 10.0 mi NW 11.5 mph 19.6 mph N/A   Clear
3:55 PM 86.0 °F 41.0 °F 20% 30.04 in 10.0 mi NNW 12.7 mph 21.9 mph N/A   Clear
4:15 PM 86.0 °F 41.0 °F 20% 30.04 in 10.0 mi NW 15.0 mph 20.7 mph N/A   Clear
4:35 PM 86.0 °F 41.0 °F 20% 30.05 in 10.0 mi WNW 15.0 mph 19.6 mph N/A   Clear
4:55 PM 86.0 °F 41.0 °F 20% 30.05 in 10.0 mi NW 11.5 mph 21.9 mph N/A   Clear
5:15 PM 86.0 °F 41.0 °F 20% 30.05 in 10.0 mi NW 16.1 mph - N/A   Clear
5:35 PM 84.2 °F 41.0 °F 22% 30.05 in 10.0 mi NW 15.0 mph - N/A   Clear
5:55 PM 84.2 °F 41.0 °F 22% 30.05 in 10.0 mi NW 15.0 mph 20.7 mph N/A   Clear
6:15 PM 82.4 °F 41.0 °F 23% 30.05 in 10.0 mi NW 15.0 mph - N/A   Clear
6:35 PM 82.4 °F 39.2 °F 21% 30.05 in 10.0 mi NW 13.8 mph - N/A   Clear
6:55 PM 82.4 °F 39.2 °F 21% 30.05 in 10.0 mi NW 15.0 mph - N/A   Clear
7:15 PM 80.6 °F 39.2 °F 23% 30.06 in 10.0 mi WNW 12.7 mph 19.6 mph N/A   Clear
7:35 PM 78.8 °F 39.2 °F 24% 30.06 in 10.0 mi WNW 11.5 mph - N/A   Clear
7:55 PM 77.0 °F 39.2 °F 26% 30.07 in 10.0 mi WNW 10.4 mph - N/A   Clear
8:15 PM 75.2 °F 41.0 °F 29% 30.08 in 10.0 mi WNW 8.1 mph - N/A   Clear
8:35 PM 75.2 °F 41.0 °F 29% 30.09 in 10.0 mi West 6.9 mph - N/A   Clear
8:55 PM 73.4 °F 44.6 °F 36% 30.09 in 10.0 mi West 6.9 mph - N/A   Clear
9:35 PM 71.6 °F 44.6 °F 38% 30.11 in 10.0 mi West 6.9 mph - N/A   Clear
9:55 PM 69.8 °F 44.6 °F 40% 30.11 in 10.0 mi West 6.9 mph - N/A   Clear
10:15 PM 68.0 °F 44.6 °F 43% 30.11 in 10.0 mi West 5.8 mph - N/A   Clear
10:35 PM 68.0 °F 44.6 °F 43% 30.12 in 9.0 mi West 6.9 mph - N/A   Clear
10:55 PM 68.0 °F 44.6 °F 43% 30.12 in 10.0 mi West 8.1 mph - N/A   Clear
11:15 PM 66.2 °F 44.6 °F 46% 30.12 in 10.0 mi NNW 3.5 mph - N/A   Clear
11:35 PM 66.2 °F 44.6 °F 46% 30.12 in 10.0 mi WNW 4.6 mph - N/A   Clear
11:55 PM 66.2 °F 44.6 °F 46% 30.12 in 10.0 mi West 4.6 mph - N/A   Clear